Location: Charleville
(26.4021°S, 146.2454°E)
Time: 04:05:35
(UTC+10:00)

Envisat - Pass Details

Date: 14 November 2025
Orbit: 761 x 762 km, 98.4° (Epoch: 05 December)

Event Time Altitude Azimuth Distance (km) Brightness Sun altitude
Exits shadow 01:53:14 25° 157° (SSE) 1,517 5.0 -37.6°
Drops below altitude 10° 01:55:37 10° 174° (S) 2,317 6.1 -37.3°
Sets 01:58:03 0° 181° (S) 3,250 6.9 -36.9°
